{"data":{"norad_id":61740,"epoch":"2026-09-22T21:14:42.366912Z","epoch_age_seconds":93903,"freshness":"FRESH","line1":"1 61740U 24199F   26265.88521258  .00002060  00000+0  18666-3 0  9990","line2":"2 61740  97.3212  97.6065 0014157  92.4367 267.8477 14.96281194146520","mean_motion":14.96281194,"eccentricity":0.0014157,"inclination_deg":97.3212,"raan_deg":97.6065,"arg_perigee_deg":92.4367,"mean_anomaly_deg":267.8477,"bstar":0.00018666,"rev_number":14652,"period_min":96.238595109951,"perigee_km":568.55051499531,"apogee_km":588.247250694,"semimajor_km":6956.5358828447,"source":"CELESTRAK","updated_at":"2026-09-23T09:00:21.023617Z"}}